TimeCDT,TemperatureF,Dew PointF,Humidity,Sea Level PressureIn,VisibilityMPH,Wind Direction,Wind SpeedMPH,Gust SpeedMPH,PrecipitationIn,Events,Conditions,WindDirDegrees,DateUTC
12:15 AM,71.6,66.2,83,30.00,10.0,Calm,Calm,-,N/A,,Scattered Clouds,0,2013-08-06 05:15:00
12:35 AM,71.6,64.4,78,29.99,10.0,Calm,Calm,-,N/A,,Clear,0,2013-08-06 05:35:00
12:55 AM,69.8,64.4,83,29.98,10.0,Calm,Calm,-,N/A,,Clear,0,2013-08-06 05:55:00
1:15 AM,69.8,64.4,83,29.98,10.0,Calm,Calm,-,N/A,,Clear,0,2013-08-06 06:15:00
1:35 AM,69.8,64.4,83,29.98,10.0,Calm,Calm,-,N/A,,Scattered Clouds,0,2013-08-06 06:35:00
1:55 AM,69.8,64.4,83,29.97,10.0,Calm,Calm,-,N/A,,Scattered Clouds,0,2013-08-06 06:55:00
2:15 AM,69.8,64.4,83,29.97,10.0,Calm,Calm,-,N/A,,Mostly Cloudy,0,2013-08-06 07:15:00
2:35 AM,69.8,64.4,83,29.97,10.0,Calm,Calm,-,N/A,,Overcast,0,2013-08-06 07:35:00
2:55 AM,69.8,64.4,83,29.97,10.0,Calm,Calm,-,N/A,,Overcast,0,2013-08-06 07:55:00
3:15 AM,69.8,64.4,83,29.97,10.0,Calm,Calm,-,N/A,,Overcast,0,2013-08-06 08:15:00
3:35 AM,69.8,64.4,83,29.97,10.0,Calm,Calm,-,N/A,,Overcast,0,2013-08-06 08:35:00
3:55 AM,69.8,64.4,83,29.96,10.0,Calm,Calm,-,N/A,,Overcast,0,2013-08-06 08:55:00
4:15 AM,69.8,64.4,83,29.96,10.0,Calm,Calm,-,N/A,,Mostly Cloudy,0,2013-08-06 09:15:00
4:35 AM,69.8,64.4,83,29.97,10.0,Calm,Calm,-,N/A,,Mostly Cloudy,0,2013-08-06 09:35:00
4:55 AM,69.8,64.4,83,29.97,10.0,Calm,Calm,-,N/A,,Overcast,0,2013-08-06 09:55:00
5:15 AM,69.8,64.4,83,29.98,10.0,Calm,Calm,-,N/A,,Mostly Cloudy,0,2013-08-06 10:15:00
5:35 AM,69.8,64.4,83,29.98,10.0,Calm,Calm,-,N/A,Thunderstorm,Overcast,0,2013-08-06 10:35:00
5:55 AM,69.8,64.4,83,29.98,10.0,Calm,Calm,-,N/A,,Mostly Cloudy,0,2013-08-06 10:55:00
6:15 AM,69.8,64.4,83,29.99,10.0,Calm,Calm,-,N/A,Thunderstorm,Mostly Cloudy,0,2013-08-06 11:15:00
6:35 AM,69.8,64.4,83,30.01,10.0,Calm,Calm,-,N/A,Rain-Thunderstorm,Light Thunderstorms and Rain,0,2013-08-06 11:35:00
6:55 AM,69.8,64.4,83,30.01,0.8,WNW,4.6,-,0.01,Rain-Thunderstorm,Thunderstorms and Rain,290,2013-08-06 11:55:00
7:15 AM,69.8,66.2,88,30.02,1.2,West,6.9,-,0.22,Rain-Thunderstorm,Heavy Thunderstorms and Rain,280,2013-08-06 12:15:00
7:35 AM,69.8,66.2,88,30.01,0.8,East,3.5,-,0.67,Rain-Thunderstorm,Heavy Thunderstorms and Rain,90,2013-08-06 12:35:00
7:55 AM,71.6,68.0,88,30.03,3.0,SSW,3.5,-,0.74,Rain-Thunderstorm,Heavy Thunderstorms and Rain,210,2013-08-06 12:55:00
8:15 AM,69.8,68.0,94,30.02,5.0,SE,4.6,-,0.10,Rain-Thunderstorm,Light Thunderstorms and Rain,140,2013-08-06 13:15:00
8:35 AM,69.8,66.2,88,30.02,10.0,Calm,Calm,-,0.10,Thunderstorm,Overcast,0,2013-08-06 13:35:00
8:55 AM,69.8,68.0,94,30.03,4.0,SE,3.5,-,0.13,Rain-Thunderstorm,Light Thunderstorms and Rain,140,2013-08-06 13:55:00
9:15 AM,71.6,68.0,88,30.02,7.0,SE,5.8,-,N/A,Thunderstorm,Thunderstorm,130,2013-08-06 14:15:00
9:35 AM,71.6,68.0,88,30.03,10.0,SSE,3.5,-,N/A,Thunderstorm,Mostly Cloudy,150,2013-08-06 14:35:00
9:55 AM,73.4,68.0,83,30.02,10.0,South,3.5,-,N/A,Thunderstorm,Overcast,170,2013-08-06 14:55:00
10:15 AM,73.4,68.0,83,30.02,10.0,South,3.5,-,N/A,Thunderstorm,Thunderstorm,180,2013-08-06 15:15:00
10:35 AM,75.2,69.8,83,30.03,10.0,SSE,4.6,-,N/A,Thunderstorm,Mostly Cloudy,160,2013-08-06 15:35:00
10:55 AM,75.2,69.8,83,30.03,10.0,SE,3.5,-,N/A,Thunderstorm,Thunderstorm,140,2013-08-06 15:55:00
11:15 AM,77.0,69.8,78,30.02,10.0,SE,3.5,-,N/A,,Scattered Clouds,140,2013-08-06 16:15:00
11:35 AM,77.0,69.8,78,30.02,10.0,South,8.1,-,N/A,Thunderstorm,Scattered Clouds,190,2013-08-06 16:35:00
11:55 AM,78.8,68.0,69,30.02,10.0,South,9.2,-,N/A,,Scattered Clouds,170,2013-08-06 16:55:00
12:15 PM,78.8,69.8,74,30.01,10.0,SSW,8.1,-,N/A,,Scattered Clouds,200,2013-08-06 17:15:00
12:35 PM,78.8,68.0,69,30.01,10.0,SSW,5.8,-,N/A,,Clear,200,2013-08-06 17:35:00
12:55 PM,78.8,68.0,69,30.01,10.0,SSW,5.8,-,N/A,,Clear,200,2013-08-06 17:55:00
1:15 PM,80.6,68.0,65,30.01,10.0,SW,6.9,-,N/A,,Scattered Clouds,220,2013-08-06 18:15:00
1:35 PM,80.6,68.0,65,30.01,10.0,South,5.8,-,N/A,,Mostly Cloudy,190,2013-08-06 18:35:00
1:55 PM,80.6,68.0,65,30.01,10.0,South,4.6,-,N/A,,Overcast,190,2013-08-06 18:55:00
2:15 PM,78.8,68.0,69,30.00,10.0,Calm,Calm,-,N/A,,Overcast,0,2013-08-06 19:15:00
2:35 PM,78.8,69.8,74,30.01,10.0,Calm,Calm,-,N/A,Thunderstorm,Overcast,0,2013-08-06 19:35:00
2:55 PM,78.8,69.8,74,30.00,10.0,West,4.6,-,N/A,Thunderstorm,Overcast,260,2013-08-06 19:55:00
3:15 PM,78.8,69.8,74,29.99,10.0,WNW,3.5,-,N/A,Rain-Thunderstorm,Light Thunderstorms and Rain,300,2013-08-06 20:15:00
3:35 PM,78.8,69.8,74,29.99,10.0,West,3.5,-,N/A,,Scattered Clouds,260,2013-08-06 20:35:00
3:55 PM,78.8,68.0,69,29.98,10.0,Calm,Calm,-,N/A,Thunderstorm,Scattered Clouds,0,2013-08-06 20:55:00
4:15 PM,78.8,71.6,78,29.99,10.0,WSW,4.6,-,N/A,Rain,Light Rain,240,2013-08-06 21:15:00
4:35 PM,78.8,71.6,78,29.99,10.0,Calm,Calm,-,0.01,Rain,Light Rain,0,2013-08-06 21:35:00
4:55 PM,78.8,71.6,78,29.98,10.0,Calm,Calm,-,0.01,,Light Drizzle,0,2013-08-06 21:55:00
5:15 PM,78.8,71.6,78,29.98,10.0,Calm,Calm,-,N/A,,Clear,0,2013-08-06 22:15:00
5:35 PM,78.8,71.6,78,29.98,10.0,Calm,Calm,-,N/A,,Scattered Clouds,0,2013-08-06 22:35:00
5:55 PM,78.8,71.6,78,29.97,10.0,SSE,3.5,-,N/A,,Clear,150,2013-08-06 22:55:00
6:15 PM,78.8,71.6,78,29.98,10.0,SSW,5.8,-,N/A,Rain,Light Rain,200,2013-08-06 23:15:00
6:35 PM,77.0,71.6,83,29.98,10.0,Calm,Calm,-,N/A,,Clear,0,2013-08-06 23:35:00
6:55 PM,77.0,71.6,83,29.98,10.0,Calm,Calm,-,N/A,,Clear,0,2013-08-06 23:55:00
7:15 PM,77.0,71.6,83,29.99,10.0,WSW,3.5,-,N/A,,Clear,250,2013-08-07 00:15:00
7:35 PM,77.0,71.6,83,29.99,10.0,Calm,Calm,-,N/A,,Clear,0,2013-08-07 00:35:00
7:55 PM,77.0,71.6,83,29.98,7.0,Calm,Calm,-,N/A,Rain,Light Rain,0,2013-08-07 00:55:00
8:15 PM,75.2,71.6,89,29.97,7.0,ESE,3.5,-,N/A,,Scattered Clouds,120,2013-08-07 01:15:00
8:35 PM,75.2,71.6,89,29.97,7.0,Calm,Calm,-,N/A,,Scattered Clouds,0,2013-08-07 01:35:00
8:55 PM,77.0,71.6,83,29.98,7.0,Calm,Calm,-,N/A,,Mostly Cloudy,0,2013-08-07 01:55:00
9:15 PM,75.2,71.6,89,29.98,7.0,Calm,Calm,-,N/A,,Mostly Cloudy,0,2013-08-07 02:15:00
9:35 PM,77.0,71.6,83,29.99,10.0,SE,3.5,-,N/A,,Scattered Clouds,140,2013-08-07 02:35:00
9:55 PM,75.2,71.6,89,29.98,10.0,Calm,Calm,-,N/A,,Scattered Clouds,0,2013-08-07 02:55:00
10:15 PM,75.2,71.6,89,29.98,10.0,Calm,Calm,-,N/A,,Mostly Cloudy,0,2013-08-07 03:15:00
10:35 PM,77.0,69.8,78,29.99,10.0,Calm,Calm,-,N/A,,Overcast,0,2013-08-07 03:35:00
10:55 PM,73.4,69.8,88,29.99,10.0,Calm,Calm,-,N/A,,Overcast,0,2013-08-07 03:55:00
11:15 PM,73.4,69.8,88,29.99,7.0,Calm,Calm,-,N/A,,Mostly Cloudy,0,2013-08-07 04:15:00
11:35 PM,73.4,69.8,88,29.99,10.0,Calm,Calm,-,N/A,,Scattered Clouds,0,2013-08-07 04:35:00
11:55 PM,73.4,69.8,88,29.99,10.0,Calm,Calm,-,N/A,,Scattered Clouds,0,2013-08-07 04:55:00